Tracking 26492 objects as of 8-Dec-2022
HD Live streaming from Space Station
objects crossing your sky now

GRIFEX

Track GRIFEX now!
10-day predictions
GRIFEX is classified as:


NORAD ID: 40379
Int'l Code: 2015-003D
Perigee: 418.3 km
Apogee: 562.1 km
Inclination: 99.1 °
Period: 94.3 minutes
Semi major axis: 6861 km
RCS: Unknown
Launch date: January 31, 2015
Source: United States (US)
Launch site: AIR FORCE WESTERN TEST RANGE (AFWTR)

Uplink (MHz):
Downlink (MHz): 437.480
Beacon (MHz):
Mode: 9k6/19k2bps GMSK
Call sign: KD8SPS
Status: Inactive

aabbcc
Your satellite tracking list
Your tracking list is empty




NASA's NSSDC Master Catalog

Two Line Element Set (TLE):
1 40379U 15003D   22341.67629607  .00015050  00000-0  47697-3 0  9994
2 40379  99.0872 229.8135 0104836 203.9351 155.6990 15.27581848434022
Source of the keplerian elements: Caltech